GOES 17 [+]

Last updated on July 6, 2021, 3:23 p.m. UTC

1 43226U 18022A   21186.76298220  .00000107  00000-0  00000-0 0  9992
2 43226   0.0664 243.6705 0000133 174.1651   3.6272  1.00270170 12285
UTC
Height (km)
Latitude
Longitude
Inclination
Orbital Period
UTC large
Height (km)
Speed (km/s)
/
Latitude / Longitude
Inclination (degrees)
Orbital Period (minutes)
Azimuth
Elevation
Range (km)
Doppler Factor
iOS Compass Heading
iOS Angle